MDT,Max TemperatureF,Mean TemperatureF,Min TemperatureF,Max Dew PointF,MeanDew PointF,Min DewpointF,Max Humidity, Mean Humidity, Min Humidity, Max Sea Level PressureIn, Mean Sea Level PressureIn, Min Sea Level PressureIn, Max VisibilityMiles, Mean VisibilityMiles, Min VisibilityMiles, Max Wind SpeedMPH, Mean Wind SpeedMPH, Max Gust SpeedMPH,PrecipitationIn, CloudCover, Events, WindDirDegrees
2013-10-1,83,70,57,43,38,31,51,35,18,29.91,29.79,29.62,10,10,10,21,10,24,0.00,0,,48
2013-10-2,84,65,46,46,42,38,71,47,22,29.83,29.74,29.65,10,10,10,15,4,17,0.00,0,,295
2013-10-3,83,65,47,50,42,34,89,53,17,29.72,29.60,29.47,10,10,9,25,10,31,0.00,0,,47
2013-10-4,60,49,37,50,37,18,100,64,27,30.15,29.83,29.55,10,8,0,33,16,39,0.00,4,Fog,341
2013-10-5,64,47,30,20,14,2,56,32,8,30.24,30.15,30.05,10,10,10,20,6,24,0.00,0,,276
2013-10-6,73,52,31,26,17,5,43,28,12,30.24,30.17,30.12,10,10,10,15,5,18,0.00,0,,270
2013-10-7,83,60,37,27,22,18,54,32,9,30.13,29.98,29.80,10,10,10,16,8,18,0.00,0,,218
2013-10-8,89,68,46,27,21,7,45,25,5,29.78,29.67,29.56,10,10,10,23,7,28,0.00,0,,232
2013-10-9,85,65,45,33,26,23,45,29,12,29.76,29.68,29.61,10,10,10,22,8,24,0.00,0,,196
2013-10-10,84,65,45,48,35,21,83,47,10,29.76,29.62,29.39,10,8,1,54,16,68,0.14,3,Rain,200
2013-10-11,74,59,44,44,31,24,77,47,17,29.98,29.71,29.52,10,10,10,30,16,37,0.00,1,,248
2013-10-12,66,53,39,41,35,31,92,60,28,30.18,30.09,30.00,10,10,10,21,12,24,0.00,1,,115
2013-10-13,78,60,42,52,43,33,72,52,31,30.14,30.00,29.83,10,10,9,37,19,46,0.00,1,,140
2013-10-14,73,57,40,50,32,15,77,45,12,30.06,29.83,29.68,10,8,1,40,17,48,0.00,2,,259
2013-10-15,55,46,37,30,25,22,65,47,29,30.28,30.19,30.07,10,10,10,21,11,25,0.00,7,,357
2013-10-16,56,46,36,31,28,25,76,56,35,30.22,30.09,29.97,10,10,10,10,3,56,0.00,4,,117
2013-10-17,62,46,30,31,27,22,82,52,21,30.09,30.00,29.90,10,10,10,22,9,26,0.00,0,,108
2013-10-18,49,41,33,36,31,27,96,71,45,30.25,30.16,29.98,10,7,1,15,7,25,0.07,6,Snow,76
2013-10-19,66,48,29,32,24,17,85,50,15,30.18,30.01,29.82,10,10,10,14,8,16,0.00,0,,212
2013-10-20,63,50,36,40,31,25,83,57,30,30.09,29.92,29.80,10,10,8,23,13,26,0.05,3,Rain,349
2013-10-21,61,47,33,40,33,27,100,64,27,30.19,30.12,30.06,10,10,9,15,8,20,T,1,Rain,260
2013-10-22,69,51,33,32,29,26,76,48,20,30.19,30.11,30.06,10,10,10,20,7,22,0.00,0,,211
2013-10-23,74,55,35,31,29,26,75,46,17,30.12,30.06,30.01,10,10,10,17,8,21,0.00,0,,16
2013-10-24,63,50,36,36,33,28,85,61,36,30.27,30.18,30.11,10,10,10,21,13,25,0.00,0,,102
2013-10-25,63,49,34,38,34,29,82,59,36,30.22,30.11,30.00,10,10,10,15,6,18,0.00,2,,320
2013-10-26,64,55,46,36,31,26,65,45,25,30.30,30.18,30.04,10,10,10,21,8,28,0.00,0,,295
2013-10-27,76,56,36,32,26,21,70,42,13,30.07,29.88,29.72,10,10,10,16,6,22,0.00,0,,234
2013-10-28,55,43,31,34,29,24,76,54,32,30.06,29.88,29.70,10,10,10,25,11,33,0.00,1,,1
2013-10-29,56,42,27,39,31,25,100,71,41,30.06,29.95,29.83,10,9,0,25,9,31,0.00,3,Fog,49
2013-10-30,68,55,41,41,32,12,93,53,13,29.91,29.80,29.64,10,7,1,28,10,37,T,5,,123
2013-10-31,63,48,33,34,22,9,89,51,12,29.85,29.77,29.68,10,10,10,15,7,18,0.00,1,,279